Date String (YYYY-MM-DD hh:mm:ss) UTC,Instrument flags,absolute air pressure of the measurement (hPa),sample flow rate (lpm),inlet stack bypass flow (lpm),air temperature of the measurement (°C),ambient temperature measured by the external sensor (°C),aerosol sample conditioner tube jacket temperature (°C),OPC LED temperature (°C),internal box temperature (°C),relative humidity of the measurement (%),span deviation,mass concentration of particles derived from Lorenz-Mie calculation of OPC scattering (μg/m³),mass concentration of particles derived from Lorenz-Mie calculation of OPC scattering (μg/m³),mass concentration of particles derived from Lorenz-Mie calculation of OPC scattering (μg/m³)
DateTimeUTC,F1_M11,P_M11,Q1_M11,Q2_M11,T1_M11,T2_M11,T3_M11,T4_M11,T5_M11,U1_M11,ZSPAN_M11,X0_M11,X2_M11,X1_M11
2024-03-10 02:00:00,SystemResetWarning,0828.9,4.99,000.00,020.6,019.6,000.0,029.2,022.2,05.4,0000.0,0010.90,0004.17,0003.44
2024-03-10 02:01:00,SystemResetWarning,0829.0,4.99,000.00,020.5,019.5,000.0,029.2,022.2,05.6,0000.0,0010.62,0004.12,0003.41
2024-03-10 02:02:00,SystemResetWarning,0829.0,5.00,000.00,020.5,019.5,000.0,029.2,022.2,05.8,0000.0,0009.90,0004.02,0003.36
2024-03-10 02:03:00,SystemResetWarning,0828.9,5.01,000.00,020.5,019.5,000.0,029.2,022.2,06.0,0000.0,0009.08,0003.98,0003.32
2024-03-10 02:04:00,SystemResetWarning,0828.9,5.00,000.00,020.5,019.5,000.0,029.1,022.2,06.2,0000.0,0008.70,0003.90,0003.25
2024-03-10 02:05:00,SystemResetWarning,0829.0,4.99,000.00,020.5,019.5,000.0,029.1,022.1,06.4,0000.0,0008.61,0003.81,0003.17
2024-03-10 02:06:00,SystemResetWarning,0829.0,4.99,000.00,020.5,019.5,000.0,029.1,022.1,06.3,0000.0,0008.45,0003.71,0003.07
2024-03-10 02:07:00,SystemResetWarning,0829.0,5.01,000.00,020.5,019.5,000.0,029.1,022.1,06.2,0000.0,0008.06,0003.59,0002.91
2024-03-10 02:08:00,SystemResetWarning,0829.0,5.00,000.00,020.4,019.5,000.0,029.1,022.1,06.3,0000.0,0007.91,0003.48,0002.76
2024-03-10 02:09:00,SystemResetWarning,0829.0,5.01,000.00,020.4,019.5,000.0,029.1,022.1,06.2,0000.0,0006.77,0003.35,0002.59
2024-03-10 02:10:00,SystemResetWarning,0829.0,4.99,000.00,020.4,019.5,000.0,029.0,022.1,06.2,0000.0,0005.83,0003.17,0002.39
2024-03-10 02:11:00,SystemResetWarning,0829.0,4.99,000.00,020.4,019.4,000.0,029.0,022.1,06.0,0000.0,0005.39,0003.01,0002.21
2024-03-10 02:12:00,SystemResetWarning,0829.0,5.00,000.00,020.4,019.4,000.0,029.0,022.0,06.0,0000.0,0005.24,0002.81,0002.04
2024-03-10 02:13:00,SystemResetWarning,0829.0,5.00,000.00,020.4,019.4,000.0,029.0,022.0,06.0,0000.0,0005.89,0002.74,0001.93
2024-03-10 02:14:00,SystemResetWarning,0829.0,5.01,000.00,020.4,019.3,000.0,029.0,022.0,06.2,0000.0,0005.83,0002.60,0001.81
2024-03-10 02:15:00,SystemResetWarning,0829.0,5.00,000.00,020.3,019.3,000.0,029.0,022.0,06.3,0000.0,0005.76,0002.48,0001.71
2024-03-10 02:16:00,SystemResetWarning,0829.0,5.01,000.00,020.3,019.3,000.0,029.0,022.0,06.4,0000.0,0005.81,0002.36,0001.60
2024-03-10 02:17:00,SystemResetWarning,0829.0,5.00,000.00,020.3,019.3,000.0,028.9,022.0,06.5,0000.0,0005.92,0002.25,0001.50
2024-03-10 02:18:00,SystemResetWarning,0829.0,5.00,000.00,020.3,019.3,000.0,028.9,022.0,06.4,0000.0,0006.40,0002.11,0001.40
2024-03-10 02:19:00,SystemResetWarning,0829.0,5.00,000.00,020.3,019.2,000.0,028.9,021.9,06.3,0000.0,0006.99,0002.03,0001.33
2024-03-10 02:20:00,SystemResetWarning,0828.9,5.00,000.00,020.3,019.2,000.0,028.9,021.9,06.4,0000.0,0006.66,0001.92,0001.23
2024-03-10 02:21:00,SystemResetWarning,0828.9,4.99,000.00,020.2,019.2,000.0,028.9,021.9,06.4,0000.0,0006.68,0001.88,0001.17
2024-03-10 02:22:00,SystemResetWarning,0828.9,4.99,000.00,020.2,019.2,000.0,028.9,021.9,06.3,0000.0,0006.59,0001.82,0001.12
2024-03-10 02:23:00,SystemResetWarning,0829.0,4.99,000.00,020.2,019.1,000.0,028.9,021.9,06.3,0000.0,0006.35,0001.77,0001.08
2024-03-10 02:24:00,SystemResetWarning,0828.9,5.00,000.00,020.2,019.1,000.0,028.8,021.8,06.4,0000.0,0005.88,0001.69,0001.04
2024-03-10 02:25:00,SystemResetWarning,0829.0,5.00,000.00,020.2,019.1,000.0,028.8,021.8,06.5,0000.0,0006.24,0001.62,0000.98
2024-03-10 02:26:00,SystemResetWarning,0828.9,5.01,000.00,020.1,019.1,000.0,028.8,021.8,06.1,0000.0,0006.28,0001.62,0000.95
2024-03-10 02:27:00,SystemResetWarning,0829.0,5.00,000.00,020.1,019.1,000.0,028.8,021.8,05.9,0000.0,0005.99,0001.54,0000.91
2024-03-10 02:28:00,SystemResetWarning,0828.9,5.00,000.00,020.1,019.1,000.0,028.8,021.8,06.1,0000.0,0005.45,0001.44,0000.89
2024-03-10 02:29:00,SystemResetWarning,0829.0,5.00,000.00,020.1,019.1,000.0,028.8,021.7,06.1,0000.0,0005.17,0001.47,0000.89
2024-03-10 02:30:00,SystemResetWarning,0829.0,4.99,000.00,020.1,019.0,000.0,028.7,021.7,06.1,0000.0,0003.99,0001.50,0000.89
2024-03-10 02:31:00,SystemResetWarning,0829.0,4.99,000.00,020.1,019.0,000.0,028.7,021.7,06.4,0000.0,0004.08,0001.50,0000.89
2024-03-10 02:32:00,SystemResetWarning,0828.9,5.00,000.00,020.0,019.0,000.0,028.7,021.7,06.5,0000.0,0004.14,0001.51,0000.90
2024-03-10 02:33:00,SystemResetWarning,0829.0,5.00,000.00,020.0,018.9,000.0,028.7,021.7,06.4,0000.0,0004.34,0001.53,0000.91
2024-03-10 02:34:00,SystemResetWarning,0829.0,5.00,000.00,020.0,018.9,000.0,028.7,021.7,06.8,0000.0,0004.41,0001.53,0000.90
2024-03-10 02:35:00,SystemResetWarning,0829.0,5.01,000.00,020.0,018.9,000.0,028.7,021.6,06.9,0000.0,0004.33,0001.61,0000.91
2024-03-10 02:36:00,SystemResetWarning,0829.0,5.00,000.00,020.0,018.9,000.0,028.6,021.6,06.8,0000.0,0003.56,0001.62,0000.91
2024-03-10 02:37:00,SystemResetWarning,0829.0,5.00,000.00,019.9,018.9,000.0,028.6,021.6,06.6,0000.0,0003.20,0001.56,0000.90
2024-03-10 02:38:00,SystemResetWarning,0829.0,5.00,000.00,019.9,018.8,000.0,028.6,021.6,06.7,0000.0,0003.07,0001.56,0000.91
2024-03-10 02:39:00,SystemResetWarning,0829.0,5.00,000.00,019.9,018.8,000.0,028.6,021.6,06.4,0000.0,0003.28,0001.61,0000.92
2024-03-10 02:40:00,SystemResetWarning,0829.0,5.00,000.00,019.9,018.9,000.0,028.6,021.6,06.6,0000.0,0003.94,0001.63,0000.92
2024-03-10 02:41:00,SystemResetWarning,0829.0,5.00,000.00,019.9,018.8,000.0,028.6,021.6,06.3,0000.0,0003.82,0001.60,0000.91
2024-03-10 02:42:00,SystemResetWarning,0829.0,5.00,000.00,019.9,018.8,000.0,028.5,021.6,06.2,0000.0,0003.69,0001.58,0000.91
2024-03-10 02:43:00,SystemResetWarning,0829.0,5.00,000.00,019.9,018.8,000.0,028.5,021.5,06.4,0000.0,0003.70,0001.60,0000.90
2024-03-10 02:44:00,SystemResetWarning,0828.9,5.00,000.00,019.9,018.8,000.0,028.5,021.5,06.5,0000.0,0003.68,0001.60,0000.88
2024-03-10 02:45:00,SystemResetWarning,0829.0,5.01,000.00,019.8,018.9,000.0,028.5,021.5,06.4,0000.0,0003.93,0001.62,0000.86
2024-03-10 02:46:00,SystemResetWarning,0829.0,5.00,000.00,019.8,018.9,000.0,028.5,021.5,06.5,0000.0,0004.80,0001.61,0000.86
2024-03-10 02:47:00,SystemResetWarning,0829.0,5.00,000.00,019.8,018.9,000.0,028.5,021.5,06.6,0000.0,0005.68,0001.61,0000.86
2024-03-10 02:48:00,SystemResetWarning,0829.0,5.00,000.00,019.8,018.9,000.0,028.5,021.5,06.6,0000.0,0005.81,0001.61,0000.85
2024-03-10 02:49:00,SystemResetWarning,0829.0,4.99,000.00,019.8,018.9,000.0,028.4,021.5,06.3,0000.0,0005.94,0001.60,0000.84
2024-03-10 02:50:00,SystemResetWarning,0829.0,4.99,000.00,019.8,018.9,000.0,028.4,021.5,06.6,0000.0,0005.96,0001.60,0000.84
2024-03-10 02:51:00,SystemResetWarning,0828.9,4.99,000.00,019.8,018.8,000.0,028.4,021.5,06.9,0000.0,0005.24,0001.53,0000.83
2024-03-10 02:52:00,SystemResetWarning,0828.9,5.00,000.00,019.8,018.8,000.0,028.4,021.5,06.9,0000.0,0005.29,0001.56,0000.83
2024-03-10 02:53:00,SystemResetWarning,0829.0,5.00,000.00,019.8,018.8,000.0,028.4,021.5,07.0,0000.0,0005.56,0001.66,0000.84
2024-03-10 02:54:00,SystemResetWarning,0829.0,5.00,000.00,019.7,018.8,000.0,028.4,021.4,06.8,0000.0,0005.49,0001.63,0000.84
2024-03-10 02:55:00,SystemResetWarning,0829.0,5.00,000.00,019.7,018.8,000.0,028.4,021.4,06.7,0000.0,0005.31,0001.59,0000.84
2024-03-10 02:56:00,SystemResetWarning,0828.9,5.00,000.00,019.7,018.7,000.0,028.4,021.4,06.6,0000.0,0004.86,0001.54,0000.85
2024-03-10 02:57:00,SystemResetWarning,0829.0,5.00,000.00,019.7,018.7,000.0,028.3,021.4,06.6,0000.0,0004.22,0001.55,0000.85
2024-03-10 02:58:00,SystemResetWarning,0829.0,5.00,000.00,019.7,018.7,000.0,028.3,021.4,06.6,0000.0,0003.09,0001.51,0000.84
2024-03-10 02:59:00,SystemResetWarning,0829.0,5.00,000.00,019.7,018.7,000.0,028.3,021.4,06.5,0000.0,0003.00,0001.50,0000.84
